This is the latest recevied weather packets stored in our database for station/object KB0BDN-13. If no packets are shown the sender has not sent any weather packets the latest 10 day(s).
| Time | Temp. | Humidity | Pressure | Rain* | Wind** | Luminosity | Snow |
|---|---|---|---|---|---|---|---|
| 1788287500 | 23.33° C | 61% | 1003.6 hPa | 0 mm | - | - | - |
| 1788287354 | 23.89° C | 61% | 1003.6 hPa | 0 mm | - | - | - |
| 1788286595 | 24.44° C | 60% | 1003.6 hPa | 0 mm | - | - | - |
| 1788286454 | 23.89° C | 60% | 1003.6 hPa | 0 mm | - | - | - |
| 1788285695 | 23.89° C | 62% | 1003.6 hPa | 0 mm | - | - | - |
| 1788285553 | 23.89° C | 62% | 1003.8 hPa | 0 mm | - | - | - |
| 1788284795 | 23.33° C | 63% | 1003.8 hPa | 0 mm | - | - | - |
| 1788284653 | 23.33° C | 62% | 1004 hPa | 0 mm | - | - | - |
| 1788283895 | 23.33° C | 62% | 1004 hPa | 0 mm | - | - | - |
| 1788283753 | 23.33° C | 63% | 1004 hPa | 0 mm | - | - | - |
| 1788282995 | 22.78° C | 63% | 1004 hPa | 0 mm | - | - | - |
| 1788282854 | 22.78° C | 63% | 1004.1 hPa | 0 mm | - | - | - |
| 1788282095 | 23.33° C | 66% | 1004.1 hPa | 0 mm | - | - | - |
| 1788281953 | 23.33° C | 64% | 1004.1 hPa | 0 mm | - | - | - |
| 1788281195 | 23.33° C | 66% | 1004.1 hPa | 0 mm | - | - | - |
| 1788280295 | 22.78° C | 65% | 1004.1 hPa | 0 mm | - | - | - |
| 1788279395 | 22.78° C | 64% | 1004.1 hPa | 0 mm | - | - | - |
| 1788278495 | 22.78° C | 66% | 1004.1 hPa | 0 mm | - | - | - |
| 1788277595 | 22.22° C | 67% | 1004.1 hPa | 0 mm | - | - | - |
| 1788277453 | 21.67° C | 67% | 1004 hPa | 0 mm | - | - | - |
| 1788276695 | 22.22° C | 69% | 1004 hPa | 0 mm | - | - | - |
| 1788276553 | 21.67° C | 67% | 1003.8 hPa | 0 mm | - | - | - |
| 1788275795 | 21.67° C | 68% | 1003.8 hPa | 0 mm | - | - | - |
| 1788274895 | 21.11° C | 69% | 1003.7 hPa | 0 mm | - | - | - |
| 1788274753 | 21.11° C | 71% | 1003.9 hPa | 0 mm | - | - | - |
* Rain latest hour (hover to see other rain measurements)
** Current wind speed in m/s (hover to see current wind gust speed)